www.pogodaiklimat.ru

Погода и климат >> Архив погоды >> Россия >> Ненецкий АО >> Индига


АРХИВ ПОГОДЫ в Индиге

Время (UTC), дата Ветер
(напр.,м/с)
 
Видим.   Явления Облачность Т
(С)
Тd
(С)
f
(%)
Тe
(С)
Тes
(С)
Комфортность P
(гПа)
Po
(гПа)
Тmin
(С)
Tmax
(С)
R
(мм)
R24
(мм)
S
(см)
18 11.04 ЮЗ 1 20 км 1/0
[Ci fib]
-13.3 -15.3 85 -16 -16 1014.3 1013.8
21 11.04 ЮЗ 3 10 км 9/9 600 м
[Sc]
-11.2 -13.1 86 -17 -17 1012.2 1011.7
00 12.04 ЮЗ 10-11
{11}
10 км позёмок 10/10 600 м
[Sc]
-5.9 -6.6 95 -16 -16 1009.5 1009.0
03 12.04 ЮЗ 9-10
{13}
2000 м слаб. снег {метель} 10/10 300 м
[Frnb Ns]
-4.1 -4.2 99 -13 -13 1007.8 1007.3 -14.6 0.3 39
06 12.04 СЗ 9-11
{11}
10 км позёмок {снег} 9/9 300 м
[St]
-0.9 -1.1 99 -9 -9 1007.7 1007.2
09 12.04 С 10-13
{15}
10 км позёмок 9/9 600 м
[Sc]
-1.6 -2.4 94 -10 -10 1010.9 1010.4
12 12.04 СЗ 9-12
{16}
10 км позёмок 9/9 300 м
[Cb cap]
-1.5 -3.5 86 -10 -10 1015.6 1015.1
15 12.04 С 9-12
{16}
1000 м ливневой снег {метель} 9/9 300 м
[Cb cap]
-3.2 -3.4 99 -12 -12 1018.6 1018.1 -0.9 1
18 12.04 С 7
{14}
10 км позёмок {ливн. осадки} 8/8 300 м
[Cb cap]
-3.6 -6.8 78 -11 -11 1020.5 1020.0
21 12.04 СЗ 6
{11}
10 км {метель} 9/9 300 м
[Cb cap]
-3.4 -6.6 78 -11 -11 1021.8 1021.3
00 13.04 С 6
{11}
10 км {метель} 9/9 600 м
[Sc]
-3.3 -6.3 80 -11 -11 1023.4 1022.9
03 13.04 СЗ 5
{10}
20 км 9/9 300 м
[Cb cap]
-3.6 -6.5 80 -10 -10 1025.2 1024.7 -4.6 0.9 40
06 13.04 СЗ 5 20 км 8/8 300 м
[Cb cap]
-3.1 -6.6 77 -10 -9 1026.8 1026.3
09 13.04 СЗ 6 20 км 4/4 300 м
[Cb cap]
-2.9 -4.9 86 -10 -9 1028.0 1027.5
12 13.04 СЗ 6 20 км 4/3 300 м
[Cb cap Ac trans]
-2.7 -4.6 87 -10 -10 1029.1 1028.5
15 13.04 З 4 20 км 3/3 600 м
[Sc]
-5.8 -7.6 87 -12 -12 1028.7 1028.2 -2.0
18 13.04 ЮЗ 6 20 км 6/3 600 м
[Sc Cs]
-5.6 -7.4 87 -14 -14 1026.9 1026.4
21 13.04 ЮЗ 10-12
{13}
10 км позёмок 9/9 600 м
[Sc]
-6.6 -7.8 91 -17 -17 1023.8 1023.3
00 14.04 З 10-12
{17}
2000 м позёмок 10/10 300 м
[St]
-1.2 -1.2 100 -10 -10 1020.5 1020.0
03 14.04 З 10-13
{13}
200 м снег {метель} 10/10 300 м
[Frnb Ns]
-0.6 -0.6 100 -9 -9 1017.7 1017.2 -5.6 2 40
06 14.04 З 11-15
{15}
1000 м слаб. снег {метель} 10/10 300 м
[Frnb Ns]
-0.1 -0.1 100 -9 -9 1016.0 1015.5
09 14.04 З 9-12
{15}
10 км в посл. час снег {метель} 10/10 300 м
[St]
+0.1 +0.1 100 -8 -8 1015.9 1015.4
12 14.04 З 9-11
{13}
2000 м слаб. ливневой снег 10/10 300 м
[Cb cap]
0.0 0.0 100 -8 -8 1014.8 1014.3
15 14.04 З 7
{11}
2000 м слаб. ливневой снег 10/10 300 м
[Cb cap]
-0.2 -0.2 100 -8 -8 1012.8 1012.3 +0.1 3
18 14.04 СЗ 8-11
{11}
2000 м слаб. ливневой снег 10/10 300 м
[Cb cap]
0.0 0.0 100 -8 -8 1011.0 1010.5
21 14.04 СЗ 4
{11}
2000 м слаб. ливневой снег 10/10 300 м
[Cb cap]
-0.5 -0.5 100 -6 -6 1010.2 1009.7
00 15.04 СЗ 2 2000 м дымка {ливн. осадки} 10/10 300 м
[St]
-1.0 -1.0 100 -5 -5 1010.1 1009.6
03 15.04 С 2 4000 м дымка 10/10 300 м
[St]
-1.2 -1.2 100 -5 -5 1011.6 1011.1 -1.2 3 42
06 15.04 С 2 4000 м дымка 10/10 300 м
[St]
-1.1 -1.1 100 -5 -5 1013.0 1012.5
09 15.04 З 3 4000 м дымка 10/10 300 м
[St]
-0.7 -0.7 100 -6 -6 1013.7 1013.2
12 15.04 З 3 2000 м слаб. снег 10/10 300 м
[Frnb Ns]
-0.5 -0.5 100 -6 -6 1012.6 1012.1
15 15.04 В 6 2000 м слаб. снег 10/10 300 м
[Frnb Ns]
-2.7 -2.7 100 -10 -10 1013.0 1012.5 -0.2 1
18 15.04 В 6 4000 м слаб. снег 10/10 300 м
[Frnb Ns]
-3.8 -3.8 100 -12 -12 1016.1 1015.6
21 15.04 В 4 10 км {снег} 9/9 600 м
[Sc]
-5.8 -5.9 99 -13 -13 1020.9 1020.4
00 16.04 В 4 10 км {снег} 9/9 600 м
[Sc]
-7.0 -7.5 96 -14 -14 1025.1 1024.6
03 16.04 В 3 4000 м слаб. снег 9/9 300 м
[St]
-6.5 -7.0 96 -12 -12 1029.3 1028.8 -7.1 0.9 45
06 16.04 В 4 20 км {снег} 5/3 600 м
[Sc Ac trans]
-6.9 -7.8 93 -14 -12 1032.8 1032.3
09 16.04 З 2 20 км 1/1 300 м
[Cb cap]
-6.9 -9.2 84 -11 -5 1035.9 1035.4
12 16.04 ЮЗ 2 20 км 3/3 300 м
[Cb cap]
-6.6 -8.6 86 -11 -8 1037.5 1037.0
15 16.04 ЮЗ 3 20 км 8/1 300 м
[Cb cap Cs]
-11.6 -13.3 87 -18 -17 1037.2 1036.7 -6.9 0.0
18 16.04 ЮЗ 4 10 км 6/0
[Ac trans Cs]
-14.0 -16.0 85 -22 -22 1036.0 1035.5
21 16.04 ЮЗ 8-10
{10}
20 км позёмок 8/6 600 м
[Sc Ac trans]
-9.0 -11.1 85 -19 -19 1034.8 1034.3
00 17.04 ЮЗ 11-12
{13}
20 км позёмок 9/9 600 м
[Sc]
-8.1 -9.7 88 -19 -19 1032.4 1031.9
03 17.04 ЮЗ 10-12
{13}
10 км позёмок 10/10 300 м
[St]
-5.8 -6.9 92 -16 -16 1029.9 1029.4 -14.6 42
06 17.04 ЮЗ 11-12
{14}
4000 м позёмок 10/10 300 м
[St]
-3.7 -3.9 99 -14 -14 1027.8 1027.3
09 17.04 З 7
{13}
2000 м в посл. час снег 10/10 300 м
[St]
-0.7 -0.7 100 -8 -8 1026.7 1026.2
12 17.04 З 7 4000 м дымка {снег} 10/10 300 м
[St]
-0.5 -0.5 100 -8 -8 1025.8 1025.3
15 17.04 З 8
{10}
4000 м позёмок 10/10 300 м
[St]
-0.8 -0.8 100 -9 -9 1023.8 1023.3 -0.5 0.3
18 17.04 З 9-11
{11}
2000 м позёмок 10/10 300 м
[St]
-0.8 -0.8 100 -9 -9 1022.0 1021.5
21 17.04 З 10-12
{14}
1000 м слаб. снег {метель} 10/10 300 м
[Frnb Ns]
-0.4 -0.4 100 -9 -9 1019.2 1018.7
00 18.04 СЗ 6
{12}
2000 м дымка {снег} 10/10 300 м
[St]
-0.1 -0.1 100 -7 -7 1018.5 1018.0
03 18.04 СЗ 5 4000 м дымка 10/10 300 м
[St]
-0.5 -0.5 100 -7 -7 1019.8 1019.3 -0.9 0.2 42
06 18.04 СЗ 6 4000 м слаб. снег {туман} 10/10 300 м
[St]
-0.3 -0.3 100 -7 -7 1021.6 1021.1
09 18.04 ЮЗ 5 4000 м дымка {снег} 10/10 300 м
[St]
0.0 -0.3 98 -6 -6 1023.3 1022.8
12 18.04 З 5 10 км 9/9 600 м
[Sc]
-0.1 -0.1 100 -7 -6 1023.3 1022.8

 

Местоположение метеостанции Индига (Ненецкий АО, Россия): широта 67.68 долгота 48.68 высота над уровнем моря 4 м.

В архиве по умолчанию представлена погода в Индиге за последнюю неделю. Архивные данные за месяц целиком и за предыдущие месяцы, начиная с января 2011 года, Вы можете получить, выбрав интересующий диапазон дат из раскрывающегося списка и нажав кнопку "Ввод!".


*Определитесь, кто Вы:
робот инопланетянин человек

Внимание! Время в таблицах - всемирное. Для получения местного времени необходимо прибавить поправку, которая равна 3 ч.

Смотрите также архив погоды в соседних городах и на ближайших метеорологических станциях:

Погода на Мысе Микулкин (Ненецкий АО, Россия) (86 км)
Погода в Нижней Пеше (Ненецкий АО, Россия) (111 км)
Погода в Коткино (Ненецкий АО, Россия) (127 км)
Погода в Бугрино (Ненецкий АО, Россия) (127 км)
Погода в Сенгейском Шаре (Ненецкий АО, Россия) (139 км)
Погода в Нарьян-Маре (Ненецкий АО, Россия) (184 км)
Погода в Шойне (Ненецкий АО, Россия) (191 км)
Погода на Колгуевом Острове (Ненецкий АО, Россия) (206 км)
Погода в Неси (Ненецкий АО, Россия) (210 км)
Погода в Окуневом Носу (Коми, Россия) (233 км)

Пояснения к столбцам:

Ветер - указаны скорость ветра в м/с - средняя за 10 мин, порывы в срок и между сроками (в фигурных скобках) и направление, откуда дует ветер: С - северный, СВ - северо-восточный, В - восточный, ЮВ - юго-восточный, Ю - южный, ЮЗ - юго-западный, З - западный, СЗ - северо-западный.
Видимость - горизонтальная дальность видимости в метрах или километрах. При видимости от 1 до 10 км при отсутствии осадков обычно наблюдается дымка, при ухудшении видимости до 1 км и менее - туман. В сухую погоду видимость может ухудшаться дымом, пылью или мглою.
Явления - указаны атмосферные явления, наблюдавшиеся в срок или в последний час перед сроком; фигурными скобками обозначены явления, наблюдавшиеся между сроками (за 1-3 часа до срока); квадратными скобками обозначены град или гололедные отложения с указанием их диаметра в мм.
Облачность - указаны через наклонную черту общая и нижняя облачность в баллах и высота нижней границы облаков в метрах; квадратными скобками обозначены формы облаков: Ci - перистые, Cs - перисто-слоистые, Cc - перисто-кучевые, Ac - высококучевые, As - высокослоистые, Sc - слоисто-кучевые, Ns - слоисто-дождевые, Cu - кучевые, Cb - кучево-дождевые. Подробнее классификацию облаков см. в Атласе облаков (PDF).
T - Температура воздуха - температура, измеренная на высоте 2 м над землей.
Td - Температура точки росы - температура, при понижении до которой содержащийся в воздухе водяной пар достигнет насыщения.
f - Относительная влажность воздуха - влажноcть воздуха, измеренная на высоте 2 м над землей.
Te - Эффективная температура - температура, которую ощущает одетый по сезону человек в тени. Характеристика душности погоды. При расчете учитывается влияние влажности воздуха и скорости ветра на теплоощущения человека.
Tes - Эффективная температура на солнце - температура, которую ощущает человек, с поправкой на солнечный нагрев. Характеристика знойности погоды. Зависит от высоты солнца над горизонтом, облачности и скорости ветра. Ночью, в пасмурную погоду, а также при ветре 12 м/с и более поправка равна нулю.
P - Атмосферное давление - приведенное к уровню моря атмосферное давление.
Po - Атмосферное давление - измеренное на уровне метеостанции атмосферное давление.
Tmin - Минимальная температура - минимум температуры воздуха на высоте 2 м над землей.
Tmax - Максимальная температура - максимум температуры воздуха на высоте 2 м над землей.
R - Количество осадков - Количество выпавших осадков за период времени, мм. При наведении курсора мыши на число - период времени, за который выпало указанное количество осадков.
R24 - Количество осадков - Количество выпавших осадков за 24 часа, мм.
S - Снежный покров - Высота снежного покрова, см. При наведении курсора мыши на число - состояние снежного покрова и степень покрытия местности в баллах.